Theta_e
308 308 308 308 309 309 308 308 307 307 307 307 307 307 306 306 306 307 307 304 308 309 312 313 314 313 315 314 313 314 315 315 315 315 317 316 316 318 317 320 319 317 317
308 307 307 307 307 308 308 307 307 306 306 306 306 306 306 306 306 306 307 307 305 306 308 311 311 312 313 314 314 313 313 313 314 315 315 315 316 315 317 318 318 318 319
308 307 307 307 307 307 307 307 306 306 306 306 305 305 305 306 306 306 306 307 307 306 306 308 310 311 311 312 313 312 312 312 314 314 314 315 314 314 315 316 317 318 319
308 308 307 306 307 307 307 306 306 305 305 305 304 305 305 305 306 306 306 306 306 306 307 307 307 309 311 311 312 311 312 312 313 313 314 314 315 314 315 316 314 315 316
308 308 307 307 307 306 306 306 305 305 304 304 304 304 305 305 305 305 306 306 307 307 307 307 306 307 308 310 312 311 310 312 312 313 313 313 313 314 315 315 314 314 314
308 308 308 307 307 306 306 306 305 305 304 304 302 302 304 305 306 306 306 306 306 307 307 307 307 306 306 308 310 311 311 311 311 312 312 313 313 313 314 315 314 314 313
308 308 308 307 307 306 306 306 305 304 304 305 302 303 304 305 303 304 305 305 306 306 306 306 307 306 306 306 307 309 310 311 311 311 312 312 312 313 314 313 313 314 314
309 308 308 307 307 306 306 306 305 303 304 305 301 301 299 301 302 303 305 304 305 306 305 305 305 306 306 306 306 306 307 310 311 311 312 312 312 313 313 313 313 314 313
309 308 308 308 307 307 306 306 305 304 302 304 303 301 298 297 299 303 302 304 304 305 305 305 305 305 305 305 306 305 306 307 309 310 311 312 312 312 312 312 312 313 313
309 309 308 308 308 307 306 306 306 305 304 302 304 302 303 301 297 297 302 302 303 303 304 304 304 304 305 305 306 306 305 305 307 309 310 312 313 313 312 312 312 312 313
310 309 308 308 307 307 307 306 306 305 304 303 303 303 302 302 301 297 296 299 302 303 303 303 304 304 304 304 305 305 306 306 307 308 308 310 312 312 312 312 312 311 312
310 309 308 308 308 307 307 307 307 306 305 304 304 304 302 300 300 299 297 298 298 301 303 303 303 303 304 304 305 305 305 306 306 307 308 308 309 311 312 312 311 311 311
309 309 309 308 307 308 308 307 307 306 306 305 304 303 304 303 303 302 299 298 298 300 300 302 303 304 303 304 304 305 304 306 306 307 307 307 308 309 310 311 310 310 310
309 310 310 309 308 307 307 307 306 307 306 306 305 304 304 304 304 303 301 299 297 298 299 297 302 303 304 304 304 304 303 306 306 306 307 307 307 307 309 309 309 309 309
308 309 308 308 308 307 307 307 306 305 305 305 305 305 305 304 305 304 303 302 299 296 297 300 299 303 304 304 303 303 303 304 306 306 305 306 307 307 308 309 309 308 308
309 308 308 307 307 307 306 306 305 306 305 305 304 304 304 304 304 305 304 303 302 299 297 301 301 302 303 301 303 302 302 304 305 306 305 305 306 307 307 307 308 307 307
309 308 307 307 307 306 306 306 305 305 304 304 304 303 303 304 304 303 304 302 302 302 298 300 303 304 301 300 301 302 302 302 303 305 305 305 305 305 306 306 306 307 306
309 308 307 306 306 306 306 305 305 304 304 303 304 304 303 303 303 303 304 302 302 302 300 298 301 303 302 301 300 301 302 301 302 303 304 305 304 305 305 306 305 305 305
308 308 306 305 305 306 306 306 305 305 305 304 304 304 304 304 303 303 303 302 302 301 301 299 299 302 303 302 299 300 300 301 301 302 303 304 304 304 304 305 305 305 304
307 307 306 306 306 306 306 306 305 305 305 305 305 305 304 304 303 304 303 303 302 301 301 299 299 299 300 301 300 296 298 300 299 300 300 300 302 303 304 305 305 305 303
306 306 305 305 306 305 305 306 306 305 305 305 306 305 305 305 307 305 303 303 302 301 300 299 298 299 299 298 296 297 296 299 300 301 298 298 297 300 301 303 303 304 302
307 306 305 304 305 304 306 306 304 305 305 305 304 305 306 306 305 306 306 306 305 302 300 299 299 298 297 299 297 296 296 295 293 300 297 296 298 297 299 300 301 301 300
308 307 306 305 305 306 307 305 306 305 305 306 305 305 304 304 304 303 304 306 307 307 306 301 299 298 298 300 297 288 289 290 292 298 296 294 297 296 298 298 299 299 299
308 308 307 307 307 306 307 305 305 305 306 307 307 307 306 305 305 303 302 302 303 303 304 306 304 301 302 302 299 296 292 289 292 293 293 291 296 296 298 299 299 299 299
309 308 308 307 307 307 307 305 304 305 305 306 307 308 307 306 306 304 302 302 302 303 304 304 305 305 306 305 303 296 292 288 287 288 291 291 294 293 297 297 297 296 297
306 307 307 308 308 306 307 304 303 304 304 305 307 306 306 305 306 305 304 303 302 302 301 298 298 301 303 303 305 302 295 290 290 287 292 289 292 294 293 296 296 295 295
Wind_Speed
4 3 3 3 3 3 3 3 4 4 4 5 4 5 5 5 4 3 3 2 5 6 7 7 7 7 8 7 5 6 8 9 9 9 9 9 10 11 9 11 10 10 9
5 4 4 4 4 3 3 4 4 4 5 5 6 6 6 5 6 6 4 4 6 5 5 6 6 6 8 9 8 6 6 8 9 8 6 9 8 9 10 11 10 10 11
6 6 5 4 4 4 5 5 5 5 5 5 7 6 6 7 7 7 7 5 6 9 7 7 7 7 7 8 8 8 6 7 9 9 8 9 6 8 9 10 10 10 10
8 7 5 5 4 4 4 5 5 5 5 5 6 6 6 7 9 9 8 7 7 6 9 9 8 9 9 9 9 8 8 8 10 9 9 9 9 7 8 9 8 10 11
10 8 7 6 6 5 5 5 5 6 6 6 7 7 8 8 9 8 10 10 10 8 6 8 9 9 9 10 10 9 8 9 9 10 9 9 9 9 10 11 8 9 9
11 9 8 8 7 6 7 6 7 6 7 7 7 9 9 8 7 8 9 9 10 10 9 8 7 7 9 11 11 11 11 11 8 10 9 10 10 9 9 9 10 11 8
11 11 9 9 9 9 9 8 8 8 7 6 6 7 8 9 9 8 7 8 10 10 10 9 7 6 6 10 11 12 12 13 11 11 10 10 10 10 10 9 10 10 10
13 11 12 10 11 8 10 10 10 8 7 6 5 4 5 4 6 6 6 7 10 8 9 11 11 10 8 6 8 11 13 14 13 13 12 10 11 11 10 11 11 11 10
13 14 14 12 11 10 9 11 11 12 9 6 10 6 4 5 4 5 7 6 8 7 8 9 11 11 11 9 9 11 14 15 15 14 13 14 12 12 11 12 12 14 12
13 14 14 14 13 10 13 12 11 11 11 10 6 9 11 8 5 5 4 6 7 8 9 8 9 11 12 10 12 14 13 14 16 16 15 15 15 14 13 12 12 13 14
12 13 14 14 14 12 14 14 13 13 11 11 10 7 8 8 10 9 9 7 6 8 8 8 9 9 11 12 10 12 16 17 17 16 16 16 16 16 15 14 13 13 16
9 13 14 14 14 14 14 13 14 15 13 13 11 10 10 7 8 9 11 12 11 9 8 9 11 10 10 10 12 16 16 17 17 17 16 16 16 18 17 15 15 14 14
9 10 12 13 13 14 14 13 13 15 15 14 15 11 11 12 11 10 10 11 11 9 7 9 10 10 10 10 10 15 17 18 18 17 17 17 17 18 19 17 16 16 15
9 10 10 12 14 14 13 13 12 12 14 13 17 15 12 11 11 11 12 11 12 11 10 9 8 9 9 9 11 13 11 18 18 17 17 17 18 18 18 19 17 17 16
10 11 11 11 11 12 13 13 11 13 13 13 14 14 13 12 11 11 12 12 12 12 12 11 8 10 9 8 10 9 10 15 18 18 17 18 19 19 19 19 19 18 16
11 11 11 11 11 11 12 13 12 12 13 12 11 15 15 13 13 11 12 12 12 13 14 11 10 10 9 8 10 12 12 18 20 21 21 20 20 20 20 20 21 19 18
10 11 11 10 11 11 12 12 13 13 14 14 15 16 18 16 12 12 11 12 12 12 14 12 12 12 13 13 12 11 12 12 11 24 25 23 21 22 21 20 21 20 19
10 10 10 10 11 11 11 13 14 13 15 16 16 17 18 12 17 16 12 15 14 14 13 18 13 11 14 12 14 15 12 11 12 18 22 24 22 22 22 21 20 20 19
10 9 9 11 11 11 12 13 14 15 15 16 16 17 17 16 17 13 14 13 12 11 12 12 12 11 11 9 10 13 13 14 11 19 21 23 23 22 22 22 20 20 18
10 9 10 11 11 11 12 12 13 14 15 15 16 16 17 17 17 16 14 14 13 12 13 12 12 11 10 9 8 8 10 11 11 11 15 16 17 21 23 23 21 19 17
9 9 10 11 11 10 9 12 12 13 14 15 16 16 16 18 21 18 10 13 13 12 11 11 11 10 10 8 10 6 9 8 10 9 9 8 8 10 11 19 18 19 19
8 9 9 10 11 8 11 13 14 13 14 15 15 15 15 16 18 25 26 28 19 13 14 11 11 12 13 10 9 8 8 9 7 8 8 9 7 8 8 9 14 16 15
7 9 9 9 11 12 11 15 16 13 14 14 14 13 13 11 14 15 20 24 24 27 26 15 15 14 13 10 8 7 9 6 8 4 7 6 5 7 9 8 14 16 16
7 8 8 9 10 10 9 13 15 13 13 15 16 16 15 15 14 12 13 13 14 14 15 13 16 16 15 11 11 12 11 8 7 4 5 5 5 6 8 7 13 15 17
7 7 8 10 10 12 8 9 10 10 12 14 13 14 14 14 14 13 13 14 13 13 12 21 24 24 24 21 18 8 7 6 6 5 7 4 4 4 6 7 7 14 16
8 7 10 10 10 11 9 10 10 8 11 9 10 11 11 14 16 14 13 13 12 13 8 6 8 15 19 16 22 13 10 10 8 4 7 7 6 4 4 5 6 6 8
Wind_Direction
264 268 264 269 279 291 297 308 309 313 303 312 293 284 276 261 259 263 277 163 314 330 336 333 343 349 333 344 347 355 351 353 350 348 2 351 354 350 349 346 351 345 341
254 253 262 260 262 267 282 291 312 304 299 294 296 282 280 270 256 247 245 206 222 269 293 312 320 332 330 327 328 331 352 346 339 333 339 349 350 346 341 345 346 343 330
252 250 260 256 262 260 266 269 273 280 280 278 274 275 271 263 252 246 237 238 204 213 247 272 289 301 307 312 316 315 311 319 325 321 335 343 347 348 336 338 341 328 344
241 250 253 254 250 251 259 267 272 276 271 275 276 271 261 259 256 250 240 232 228 241 201 230 266 286 291 293 295 303 297 306 315 313 312 325 332 331 317 319 318 331 328
237 239 245 248 242 242 242 253 258 258 275 273 275 278 272 263 258 251 245 237 232 233 232 202 239 262 269 274 273 280 280 288 299 303 303 304 314 322 324 328 342 322 319
235 238 243 245 242 238 241 237 250 251 264 278 283 279 270 260 252 246 242 235 230 231 238 244 233 227 235 256 263 265 273 272 275 288 295 294 302 309 308 320 321 322 321
231 231 239 243 234 238 242 241 245 251 251 251 280 272 265 252 250 237 232 232 226 224 228 232 240 248 240 237 259 261 269 267 263 274 280 286 291 298 299 306 304 317 317
230 229 232 237 236 236 238 238 234 244 247 244 262 285 280 223 222 224 221 232 233 225 230 236 239 243 249 257 258 255 260 262 259 262 270 272 282 291 300 301 309 299 300
230 228 231 233 236 234 239 233 230 228 244 225 235 254 268 259 328 185 233 232 233 231 235 241 244 246 249 256 255 246 246 250 252 257 262 269 269 280 289 291 297 299 297
229 228 231 232 235 231 234 236 230 229 228 244 220 241 255 275 283 296 199 235 231 240 238 239 244 245 250 254 257 258 262 243 246 250 261 266 270 272 279 286 295 299 295
235 235 231 232 233 232 235 235 230 227 231 236 241 236 236 247 250 259 277 255 217 240 249 242 239 242 250 251 252 255 246 243 241 245 256 261 270 272 273 280 288 293 295
239 234 236 235 238 235 235 235 235 234 231 232 239 236 233 227 227 235 247 262 266 266 263 246 251 249 242 242 247 247 243 238 243 247 255 259 265 269 269 273 283 288 291
244 242 234 235 236 238 238 237 236 233 233 234 234 237 236 241 246 245 253 267 271 272 266 253 246 245 248 247 243 236 238 235 232 245 253 260 264 267 269 269 275 284 288
255 253 240 238 244 241 239 238 239 238 238 237 236 235 242 239 240 242 245 257 266 262 251 253 262 245 245 242 239 236 235 229 234 242 250 258 263 266 266 267 267 277 283
261 256 250 245 241 243 240 236 239 240 237 242 243 239 242 243 241 240 239 238 244 256 255 255 239 224 234 233 237 227 225 233 234 242 252 258 263 264 266 267 265 272 280
255 256 252 245 244 240 238 237 241 243 244 242 243 242 239 237 239 240 240 240 240 251 263 256 248 248 242 234 221 220 222 230 236 239 245 256 261 263 265 266 266 267 275
257 252 250 249 245 240 238 238 239 242 240 242 239 239 244 240 238 239 236 241 241 240 252 255 260 258 235 248 249 231 242 233 231 241 247 251 257 259 257 262 264 263 271
258 260 259 253 247 243 241 240 242 239 241 241 239 242 245 241 241 240 238 236 238 240 249 261 259 262 253 238 247 249 246 242 246 244 243 249 249 251 254 254 257 258 267
264 263 256 254 251 244 241 238 241 243 244 247 247 246 247 242 244 239 238 244 245 249 256 261 264 263 264 253 250 252 254 256 247 249 250 248 246 245 247 252 250 251 259
273 265 258 257 252 249 247 246 244 247 248 249 250 251 252 247 246 248 246 246 247 246 240 242 251 251 250 248 240 255 254 244 253 251 245 248 245 245 244 245 245 244 252
271 267 263 261 260 256 253 247 245 252 255 258 254 253 254 252 253 249 245 241 234 236 238 237 243 246 237 224 225 214 245 259 258 255 250 246 235 238 237 239 243 236 239
276 271 267 268 268 259 255 240 246 259 257 256 260 260 257 251 250 247 245 245 249 251 242 243 248 245 249 243 227 223 233 241 258 213 233 246 229 239 238 230 231 234 226
279 276 277 275 276 274 257 250 248 253 261 262 267 268 266 253 244 248 248 252 251 247 244 253 257 251 259 247 220 214 220 219 239 232 218 247 208 240 246 237 230 225 230
292 296 292 286 281 283 272 269 264 258 260 261 259 256 261 263 257 250 258 256 251 250 247 243 239 253 261 258 232 220 217 225 228 218 217 256 202 219 248 231 240 231 228
295 293 291 291 289 292 299 288 285 275 263 261 264 264 260 264 265 255 252 261 261 260 247 245 249 256 262 253 244 215 214 198 224 207 190 228 209 223 233 240 230 219 217
283 287 291 295 295 296 306 304 291 282 280 282 280 274 255 260 272 259 247 256 261 256 263 252 253 260 262 263 265 257 214 214 219 199 195 196 197 198 229 206 236 208 209